Location: ?????????
(38.5999°N, 22.7695°E)
Time: 15:09:04
(UTC+00:00)

Cosmos 1741 Rocket - Pass Details

Date: 23 May 2024
Orbit: 758 x 781 km, 74.0° (Epoch: 13 June)

Event Time Altitude Azimuth Distance (km) Brightness Sun altitude
Exits shadow 00:11:03 74° 143° (SE) 796 3.9 -25.8°
Maximum altitude 00:11:20 77° 107° (ESE) 787 3.9 -25.8°
Drops below altitude 10° 00:16:35 10° 21° (NNE) 2,314 7.5 -25.3°
Sets 00:18:59 0° 21° (NNE) 3,248 8.6 -25.1°
